Vorticity
5 5 5 6 6 4 5 5 4 7 6 5 4 3 3 2 3 3 3 1 0 2 2 2 3 4 5 6 8 9 10 8 6 4 6 9 10 13 14 12 11 11 11 10 9 9 9 8 8 8 8 8 8 8 8 8 8 8 8 8 8 8 8 8 8 8 8 9 9 9 10 10 10 11 11 10 10 10 9 9 8 8 8 9 9 9 10 10 10 11 11 11 11 11 10 10 9
5 5 5 5 5 4 6 4 3 7 6 5 6 5 3 3 4 3 2 1 2 4 4 3 4 6 8 10 10 10 8 6 6 7 8 9 11 14 13 11 11 10 8 8 7 7 8 7 7 7 7 8 8 8 7 7 7 7 7 7 7 7 7 7 7 7 7 7 7 8 8 8 9 9 9 9 9 9 9 9 8 7 7 6 6 7 7 7 7 8 9 9 10 10 10 10 10
6 6 5 6 6 5 5 3 3 5 4 4 4 4 5 5 5 4 3 4 4 5 5 5 7 10 11 10 8 6 6 7 8 8 9 12 14 13 10 9 9 7 7 7 6 6 6 6 7 7 7 7 7 7 7 7 6 7 7 6 7 6 6 6 7 6 6 6 6 6 6 6 7 7 8 8 8 9 9 9 8 8 7 7 6 6 6 6 6 6 6 6 7 7 7 7 8
6 5 6 6 6 5 5 5 5 5 7 6 4 6 6 5 4 3 4 4 4 4 5 7 10 10 7 5 5 6 7 10 9 8 10 14 14 10 8 8 6 6 6 6 6 6 5 6 6 6 6 6 6 6 6 6 6 6 6 6 6 6 6 6 6 5 5 5 5 5 5 5 5 6 6 7 7 7 8 8 8 8 8 7 7 7 7 7 6 7 6 7 7 7 7 7 7
5 5 5 4 5 6 5 6 7 7 8 5 4 6 4 4 3 3 4 5 6 6 8 10 9 6 4 5 8 10 11 11 9 9 11 12 11 7 6 5 5 5 5 5 5 5 5 4 5 5 5 5 5 5 5 4 4 4 5 5 5 5 5 5 4 4 4 5 5 5 5 5 5 5 5 5 6 6 7 7 8 8 8 8 8 8 7 7 7 7 7 7 8 8 8 8 8
5 5 5 5 5 4 4 5 7 7 6 4 3 3 2 3 3 4 6 7 8 9 11 9 5 5 6 9 11 12 12 11 10 9 9 9 8 6 4 4 4 4 4 4 4 4 4 3 4 4 3 3 3 4 3 3 3 3 4 4 4 4 4 3 3 3 3 3 4 4 4 5 5 5 5 5 5 5 6 6 7 7 8 8 8 8 8 8 8 8 8 8 8 8 8 8 8
5 6 6 5 5 4 4 5 6 5 4 5 3 2 3 3 3 6 8 9 10 9 9 5 5 8 9 12 12 11 11 9 10 9 7 7 6 4 2 2 2 3 4 3 3 3 3 3 3 3 3 3 3 3 2 3 3 3 3 3 4 4 4 3 3 3 2 2 2 2 3 3 4 4 5 5 5 5 5 5 5 5 6 7 7 7 8 8 8 9 8 8 8 8 8 8 8
5 6 6 5 6 6 6 5 5 4 3 4 5 4 5 5 5 9 12 12 9 7 5 4 10 11 10 12 10 10 9 6 7 6 5 5 3 3 1 2 2 2 2 2 2 2 2 2 2 2 2 2 2 2 2 2 2 2 2 2 3 3 4 4 3 3 3 3 2 2 2 2 2 3 4 4 4 5 5 5 4 4 4 4 5 5 5 6 6 7 7 7 8 8 9 9 9
6 7 7 6 5 4 7 7 4 5 3 2 5 6 6 7 9 12 13 9 5 5 4 8 13 10 9 9 8 8 6 4 5 3 2 1 3 3 1 2 2 1 1 1 2 2 2 2 2 2 2 2 2 2 2 1 1 1 1 1 2 2 2 2 2 3 3 3 3 2 2 2 2 2 3 3 3 3 4 4 4 4 4 4 4 4 4 4 4 4 5 5 6 6 7 8 8
5 5 4 3 3 4 5 5 4 5 4 4 7 7 7 10 12 12 8 3 3 6 7 12 12 8 9 7 7 8 5 4 3 2 1 1 4 2 0 2 2 1 1 1 2 2 2 2 2 2 2 3 3 3 2 2 2 2 2 1 1 1 1 1 1 2 2 2 2 2 1 2 2 2 2 3 3 3 3 3 3 3 3 4 3 4 4 3 3 3 3 4 4 5 5 6 6
6 5 2 2 3 5 5 4 5 4 4 7 8 6 9 11 11 8 4 3 7 8 9 12 10 9 10 5 7 7 3 3 2 2 2 2 3 2 1 2 1 2 2 2 2 2 2 3 3 2 2 3 3 3 3 3 3 3 3 2 2 1 1 1 1 1 2 1 1 2 1 1 1 1 1 2 2 2 3 2 3 3 3 3 3 3 3 3 3 3 2 2 3 3 3 4 3
7 5 3 5 5 5 4 5 4 3 6 6 5 7 9 9 7 5 4 4 9 9 9 11 9 9 7 2 5 4 1 2 2 3 2 2 2 2 1 0 1 2 2 2 2 2 2 2 2 2 2 2 3 3 3 4 3 4 4 3 3 2 1 1 1 1 2 1 2 2 2 1 1 1 1 1 2 2 2 2 2 2 2 2 2 3 3 3 3 3 2 2 2 2 3 2 3
6 5 5 6 7 5 4 5 1 3 9 3 4 9 6 4 4 5 7 6 9 9 9 10 8 7 4 2 5 4 2 2 2 3 2 2 1 1 0 0 2 2 2 2 1 2 1 2 2 2 2 2 2 3 3 2 3 4 4 4 4 3 3 2 2 1 2 2 2 2 2 2 2 2 2 1 1 2 2 2 2 2 2 2 2 2 2 2 2 2 2 2 2 1 1 1 2
5 6 6 7 8 5 4 6 3 7 9 3 6 8 3 4 4 6 9 7 8 10 9 9 7 5 4 4 4 3 2 2 2 3 2 1 1 2 1 1 1 1 2 1 1 1 1 2 2 2 2 2 3 3 2 2 3 3 4 4 3 4 4 3 3 2 2 2 2 2 2 2 3 3 3 2 2 2 2 2 2 1 2 1 1 2 2 2 2 2 2 2 1 1 -0 -0 2
5 5 6 7 7 5 4 5 5 8 7 6 10 7 2 6 7 7 10 8 6 11 9 5 6 5 4 3 3 2 1 1 1 2 2 1 2 2 2 2 1 1 1 2 2 2 2 2 2 2 3 3 3 3 2 2 3 3 4 4 3 3 4 4 3 3 3 3 3 3 3 2 3 3 3 3 3 3 2 2 2 2 2 1 1 1 1 2 2 2 2 1 1 1 -1 -0 1
5 5 6 6 5 4 5 6 7 10 9 9 9 6 3 7 11 7 9 8 6 11 7 5 7 4 1 1 2 2 0 1 1 1 2 2 2 2 2 2 2 1 2 3 3 2 2 3 2 3 3 3 3 3 3 3 3 4 4 4 4 4 4 4 4 4 3 3 3 3 3 3 3 3 3 3 4 4 3 3 3 3 3 2 2 1 1 1 1 1 1 1 2 1 0 1 0
5 6 7 7 5 5 7 9 9 11 11 9 7 6 6 7 10 8 7 9 8 9 6 7 7 1 -0 1 2 1 1 2 2 2 2 2 2 2 3 2 2 2 3 4 4 4 3 3 3 3 3 2 2 3 3 2 3 4 4 3 4 5 4 4 4 4 4 3 3 3 3 3 4 4 4 4 4 4 4 4 4 3 3 3 3 2 2 2 2 2 1 1 2 1 1 1 1
7 9 9 8 7 9 11 11 11 11 9 8 7 8 8 7 10 9 9 10 9 7 6 8 3 -0 3 3 2 1 2 3 3 3 3 3 4 4 3 3 4 4 4 4 4 3 4 5 4 3 2 2 3 3 3 2 3 4 4 3 4 5 5 4 4 4 4 4 4 3 3 2 3 4 5 4 4 5 5 5 5 5 4 4 4 3 3 3 3 2 2 2 2 2 2 2 2
9 10 11 10 10 12 12 10 11 11 9 8 8 8 8 8 9 10 10 9 9 7 6 8 4 4 6 4 3 4 5 5 4 4 4 6 7 6 6 5 5 5 5 4 3 3 5 6 4 3 4 4 3 2 2 3 3 4 4 3 4 5 5 4 4 4 4 4 3 4 3 2 2 2 3 3 3 4 4 5 5 5 5 5 5 5 4 4 4 3 3 3 3 3 3 3 3
12 12 13 12 12 12 10 10 10 10 10 8 8 8 7 8 8 9 9 6 7 8 5 4 5 6 9 10 9 5 5 7 7 7 8 10 11 10 9 8 7 6 6 5 5 6 5 5 4 4 4 4 5 4 3 3 3 4 4 4 4 5 5 5 4 5 5 5 4 3 3 3 3 3 3 3 3 3 3 4 4 4 5 5 5 5 5 5 5 5 4 4 4 4 4 4 4
14 12 11 12 12 10 7 9 9 8 9 8 7 8 8 8 7 7 8 4 4 7 8 7 7 7 7 9 9 6 6 9 10 11 12 11 10 10 10 10 9 8 8 8 9 9 7 6 5 4 4 6 7 7 6 6 6 5 5 5 5 4 4 5 5 5 5 5 5 4 4 4 4 4 4 4 4 4 3 4 4 4 4 5 5 5 6 5 5 5 5 5 5 4 5 5 5
11 7 7 8 7 6 6 6 6 7 8 7 8 9 8 7 7 8 8 6 4 6 10 10 8 6 4 6 10 11 10 10 11 11 11 10 9 9 9 9 10 10 10 10 10 9 9 8 7 7 7 9 9 9 8 8 8 7 6 6 6 6 5 5 6 5 5 5 5 5 5 5 4 4 4 5 5 5 5 5 5 5 5 5 6 6 6 6 6 6 6 6 6 6 6 6 6
6 4 3 3 4 5 6 7 8 9 9 9 9 9 8 5 7 9 8 7 6 7 10 8 6 8 8 10 11 10 9 8 7 7 7 8 9 9 9 9 10 11 9 9 10 10 9 9 10 10 9 10 10 9 8 8 9 9 9 9 10 9 9 8 7 7 7 7 6 6 6 6 5 5 5 6 6 6 6 6 6 6 6 6 7 7 7 7 7 8 8 8 8 8 8 8 8
6 6 7 7 7 9 11 12 11 10 9 9 9 7 7 6 4 6 8 9 7 4 5 6 6 10 10 8 6 6 6 6 6 5 5 6 6 6 6 6 6 6 6 7 7 7 7 8 8 8 8 9 9 8 8 10 11 11 11 12 11 11 11 10 9 9 9 8 8 8 8 7 7 7 7 7 7 7 8 7 7 8 8 8 8 8 8 8 8 8 8 9 9 9 9 9 9
13 13 12 12 12 12 11 9 7 7 6 6 7 5 5 6 4 5 8 7 6 5 4 6 7 8 7 5 5 6 6 7 7 6 6 5 5 5 5 5 4 5 6 6 6 7 7 7 7 7 7 8 8 8 8 9 10 11 11 10 9 10 10 10 10 10 10 9 9 8 8 8 8 8 8 9 9 9 9 9 9 9 9 9 9 9 9 9 8 8 8 8 8 9 9 9 9
13 11 9 9 10 8 6 6 5 4 4 5 7 6 5 6 5 5 7 7 7 9 9 9 9 8 8 8 7 7 7 7 7 6 6 5 5 6 7 7 7 6 5 5 7 8 6 6 7 9 9 9 8 8 9 10 11 11 10 10 9 9 8 9 9 9 9 9 9 9 9 9 9 10 10 10 10 10 10 10 10 10 11 10 10 10 10 10 10 9 9 9 9 9 9 9 9
6 5 4 6 7 6 4 4 4 3 3 5 6 6 6 6 5 4 7 10 8 7 9 9 8 7 8 10 10 10 10 10 10 10 9 9 9 8 9 10 9 8 7 7 8 7 7 9 10 10 11 9 7 9 13 12 12 11 10 11 12 12 10 9 8 8 8 9 9 10 11 11 11 11 11 10 10 10 11 11 11 11 11 11 11 11 11 12 11 10 10 10 9 9 9 10 10
5 5 5 5 4 4 6 4 4 5 5 5 4 6 8 7 6 6 5 7 7 6 6 7 8 7 7 8 9 9 9 8 9 9 9 10 10 9 9 10 10 10 10 9 8 8 10 12 10 9 8 7 10 14 15 12 13 13 14 15 15 13 11 9 8 8 9 10 10 11 11 10 10 11 11 11 11 11 11 11 12 12 11 11 10 10 11 11 11 11 11 11 11 11 11 11 11
9 8 8 9 5 3 8 8 6 6 4 4 2 2 11 15 12 8 7 8 11 13 13 14 14 14 14 14 14 15 14 12 12 12 12 11 12 12 11 10 10 10 11 11 11 12 12 10 9 11 11 11 15 17 15 14 16 16 16 14 11 9 9 9 9 10 10 11 11 10 9 9 9 9 11 11 11 10 10 10 10 10 9 10 10 9 9 9 10 10 11 12 12 13 12 12 12
6 6 6 8 8 4 4 6 7 6 5 7 7 2 7 16 19 15 12 11 10 11 12 13 14 15 16 16 16 17 17 15 14 15 15 16 16 17 16 15 15 13 13 13 13 13 12 12 13 13 13 12 13 13 12 12 11 11 10 9 8 8 9 10 11 11 10 10 9 9 9 10 10 9 10 9 9 9 8 8 8 7 8 8 8 8 8 8 9 10 12 12 13 13 13 13 13
5 7 7 5 7 8 6 5 9 13 11 9 10 8 4 7 14 16 14 14 12 11 11 10 10 11 11 12 13 14 16 17 15 15 15 16 16 18 20 19 20 20 19 19 19 18 17 18 17 14 12 11 10 9 7 4 2 1 2 4 7 8 9 10 11 10 9 9 9 9 9 10 10 9 9 9 10 10 9 9 8 8 8 8 8 8 8 9 9 10 11 12 12 13 13 14 13
7 7 8 7 6 9 10 8 7 10 13 11 9 9 8 8 10 12 14 16 17 18 18 17 13 10 7 4 3 2 4 6 8 9 8 9 11 13 16 17 19 20 20 20 19 18 19 19 19 18 18 16 14 9 5 4 4 5 7 8 9 9 10 11 10 9 8 9 9 10 11 11 11 11 11 11 11 12 11 11 10 9 9 9 9 9 10 10 11 12 12 12 12 12 13 13 12
7 5 5 9 10 7 8 10 9 7 8 11 13 12 11 11 9 8 11 11 11 11 10 9 8 7 7 4 3 3 1 0 2 4 3 3 3 2 3 4 6 8 10 11 11 10 11 11 12 14 16 17 18 16 13 14 14 13 13 11 9 9 10 9 8 7 8 10 12 13 13 13 13 13 13 13 13 13 13 13 13 12 12 12 11 11 12 13 13 14 12 12 11 12 12 11 11
5 7 6 9 14 11 8 8 9 10 9 9 12 14 11 9 7 4 4 6 5 2 -1 -2 1 6 10 11 14 15 15 15 12 10 10 9 8 5 3 -0 -2 -2 -1 0 1 3 4 6 8 11 12 13 13 12 12 14 15 14 13 12 12 11 12 11 11 11 13 13 12 12 11 11 11 12 12 12 12 12 11 12 12 13 14 14 15 15 14 14 13 12 10 11 12 12 12 11 10
9 10 8 6 6 8 9 8 8 9 7 7 8 11 11 8 7 3 2 6 5 3 1 1 5 9 10 11 13 13 13 12 8 7 12 15 14 9 6 5 5 4 2 -0 -0 -0 1 2 4 7 10 12 11 9 10 12 12 12 11 11 11 10 9 10 12 12 12 11 9 7 7 6 7 7 7 8 7 7 8 8 9 10 11 12 13 15 14 13 11 10 9 10 12 12 12 11 10
10 10 9 6 2 2 5 8 9 7 3 5 6 10 12 8 6 3 4 10 8 5 6 7 10 10 10 11 11 9 7 5 5 9 13 16 13 5 2 5 9 12 10 9 8 5 2 2 1 -0 -2 -2 2 6 7 6 5 5 4 4 4 4 5 7 8 8 7 6 5 5 5 4 4 5 6 6 5 6 6 7 6 5 6 6 7 9 10 10 11 10 9 9 12 13 13 12 10
4 3 1 3 3 0 4 7 7 6 6 5 4 9 12 5 2 3 7 10 8 6 7 8 8 7 8 9 7 4 3 5 7 9 10 12 10 7 7 9 13 15 10 7 7 5 3 5 6 1 -7 -12 -11 -8 -7 -8 -5 -3 -2 -1 0 1 3 4 5 5 5 4 4 4 4 4 4 5 5 6 6 7 8 7 6 5 5 4 4 5 6 7 8 9 9 8 9 12 14 14 11
2 2 0 3 5 4 6 7 5 5 6 6 6 10 7 -1 2 6 5 5 7 6 4 4 4 4 5 4 2 3 5 5 3 3 7 9 8 7 9 12 16 18 16 13 10 6 5 7 9 10 7 3 -1 -4 -5 -5 -3 -3 -2 -1 -1 -1 1 2 3 5 4 4 3 3 4 4 4 4 5 6 7 8 8 8 8 8 9 9 8 8 7 7 6 6 8 8 8 8 11 14 13
5 6 6 6 8 9 6 3 4 5 6 5 6 9 3 -2 5 8 4 4 7 4 2 5 4 2 2 -0 2 6 6 4 2 3 5 6 6 4 6 11 13 13 15 15 10 8 9 9 12 16 17 15 11 6 4 2 1 3 4 3 1 -0 0 1 1 4 5 4 3 2 3 2 2 4 5 6 6 6 6 6 8 9 10 11 12 11 11 11 10 7 6 8 10 8 7 10 10
8 7 8 8 8 12 10 5 5 6 7 7 7 10 4 -1 6 9 6 6 6 3 4 8 7 4 3 0 4 6 2 3 4 5 7 9 10 8 7 11 12 9 7 5 1 2 4 5 8 13 18 20 15 11 11 10 9 8 5 2 2 2 2 4 3 4 5 3 3 4 3 2 2 3 4 4 4 4 5 5 6 7 7 8 9 10 12 14 14 12 10 9 11 12 9 7 7
7 6 7 8 7 8 9 8 8 6 6 6 7 8 3 1 7 8 7 8 7 7 8 9 10 10 7 3 6 6 3 5 6 6 9 10 11 9 7 9 9 9 9 6 1 1 1 1 3 7 13 17 14 11 13 15 14 12 8 6 4 3 3 4 4 5 3 2 5 5 4 3 2 1 1 2 2 1 2 3 3 4 4 4 5 6 8 11 13 16 14 10 9 12 13 9 7
5 5 5 5 6 6 6 8 9 6 5 7 8 6 4 4 5 5 7 4 1 3 6 8 8 7 3 4 7 6 5 7 6 7 9 9 11 11 9 8 6 6 7 6 3 3 2 0 1 4 8 12 13 10 9 11 14 12 11 10 9 8 8 9 9 8 8 9 11 10 9 8 6 5 2 1 2 1 1 1 2 3 3 3 4 5 5 7 10 15 15 12 10 10 13 13 9
3 5 5 5 6 5 7 9 8 8 10 10 7 4 4 3 1 3 4 -2 -5 0 5 7 7 4 4 6 7 7 8 10 9 10 11 11 12 11 9 6 4 4 5 5 4 5 6 4 1 2 3 3 6 7 6 9 13 13 14 15 14 14 13 14 14 14 14 14 13 11 9 9 8 9 9 7 6 4 3 3 3 4 4 4 3 3 4 5 7 11 13 13 12 9 10 12 9
5 6 5 4 6 7 9 9 8 9 8 6 3 2 3 1 1 4 4 3 5 7 6 5 5 5 6 7 7 7 9 10 11 11 11 10 9 9 9 7 4 2 1 3 4 4 7 6 2 3 5 3 2 3 4 5 7 11 14 13 11 11 12 12 9 9 10 11 12 12 9 8 7 7 8 10 11 9 8 8 7 6 5 4 4 3 2 2 4 7 11 14 14 11 9 9 9
4 5 5 6 8 9 9 8 8 6 4 3 2 2 3 2 5 7 6 7 8 7 6 3 -1 -2 -0 2 3 5 7 10 13 13 12 10 8 9 9 8 6 5 4 4 5 7 10 9 5 4 6 5 3 3 3 1 1 4 7 7 6 6 10 12 11 9 7 6 7 10 11 10 9 9 8 8 9 11 12 11 9 8 7 5 5 7 7 6 6 4 6 11 14 12 10 10 11
5 4 4 7 9 10 8 6 5 3 3 5 3 4 8 7 9 10 8 8 6 6 7 4 2 0 -0 0 3 6 8 10 12 11 13 13 12 13 13 12 8 5 5 4 6 10 13 13 9 8 9 8 6 6 6 3 1 1 1 1 2 1 2 4 9 10 9 6 2 1 5 6 6 9 11 10 8 9 10 11 10 8 8 8 7 10 13 12 11 7 4 5 8 11 12 11 10
6 5 6 7 7 7 6 4 5 3 5 8 8 11 12 8 9 11 9 9 7 8 9 8 6 3 2 5 7 10 9 9 11 11 12 14 13 10 10 13 14 13 16 20 24 26 25 22 17 15 14 11 7 5 5 5 4 3 2 0 -0 1 2 1 3 6 7 9 7 3 2 3 4 6 12 16 15 12 11 10 11 11 10 12 12 11 11 12 13 12 8 5 6 10 13 12 11
5 7 10 10 9 8 6 6 7 7 9 12 11 12 10 6 8 10 10 10 9 10 10 7 4 3 6 8 7 8 8 8 12 13 13 16 16 14 12 11 12 15 18 15 10 5 5 7 10 12 9 5 6 8 10 12 9 5 2 0 -0 2 4 1 2 4 4 5 7 8 10 10 9 9 11 17 17 14 14 11 9 12 12 13 13 12 11 13 15 16 12 9 8 6 6 8 11
7 10 8 8 11 10 7 8 8 8 8 10 11 10 9 8 7 8 8 7 8 8 7 6 6 6 5 6 6 9 12 13 15 17 18 19 19 20 20 14 5 1 -3 -9 -16 -20 -21 -19 -8 8 14 13 16 19 22 23 20 14 6 1 -1 0 0 -2 -0 2 3 5 5 9 20 18 11 12 13 17 19 14 14 16 11 8 9 10 10 10 12 13 14 16 15 10 7 4 2 4 8
8 8 6 8 11 8 6 7 7 5 1 6 13 10 7 7 5 5 5 6 8 7 7 7 6 7 10 14 16 14 14 16 16 16 17 18 19 22 25 24 19 12 2 -4 -5 -7 -11 -14 -10 1 12 20 21 19 19 18 17 16 13 9 7 5 1 0 3 1 2 9 5 5 19 18 8 10 11 14 22 20 17 20 15 12 13 12 11 10 9 11 11 14 16 11 7 5 3 3 5
6 6 7 9 9 7 7 6 7 4 -4 2 14 9 6 7 5 6 7 6 7 5 7 9 11 17 19 15 9 6 10 14 15 14 12 11 12 11 13 16 20 17 8 -0 -6 -11 -9 2 9 3 0 11 21 22 17 11 9 10 11 13 13 11 5 1 2 2 7 18 10 1 10 12 5 8 12 14 19 22 21 17 11 13 16 13 12 12 9 10 11 12 17 15 10 7 6 6 6
6 7 7 9 8 8 7 5 8 8 -4 1 12 9 8 9 7 8 9 7 7 8 10 14 16 14 6 1 4 12 21 24 24 23 18 13 9 2 -1 -1 -1 2 3 3 1 3 10 22 31 26 16 10 13 22 22 14 9 6 6 8 6 5 3 1 4 9 15 21 12 3 4 2 0 7 12 10 9 12 15 10 4 8 14 13 11 11 11 12 11 11 14 14 13 10 8 8 8
7 5 7 8 8 10 9 4 8 10 1 2 11 10 8 10 9 11 13 10 9 9 11 12 11 7 6 14 23 27 26 21 20 18 10 5 6 8 9 7 6 10 14 16 16 18 17 14 14 19 22 15 9 18 26 22 15 8 5 5 2 -2 -5 -4 6 14 18 17 8 5 7 2 -2 3 6 2 -3 -2 2 3 2 5 11 14 12 9 9 11 10 9 9 10 12 12 10 10 10
5 5 7 7 5 8 11 10 9 9 4 4 9 8 6 10 12 13 12 8 8 13 16 16 14 16 24 31 30 25 20 14 13 13 7 2 5 11 15 14 14 13 12 11 11 10 10 10 10 10 11 10 9 14 22 22 18 14 9 4 4 5 4 7 11 9 10 15 13 8 10 10 5 2 4 4 3 0 -3 -4 1 5 9 15 16 12 6 6 10 10 9 9 10 11 12 13 12
6 6 7 8 7 5 8 15 13 8 6 5 7 6 5 12 17 14 10 11 19 23 20 18 19 25 28 23 17 13 10 9 9 11 13 12 11 9 8 10 11 12 16 19 19 16 11 7 7 9 10 9 8 11 15 17 16 15 12 5 1 3 6 14 19 15 8 9 13 12 9 11 13 8 4 2 6 10 3 -4 -0 7 9 11 16 17 9 5 9 13 12 11 10 9 9 12 15
6 4 4 7 10 6 5 13 15 12 8 7 8 2 3 20 23 13 12 18 22 18 14 19 25 23 10 1 11 20 20 22 24 26 31 33 33 34 37 42 46 50 57 61 62 62 55 40 22 11 9 11 11 9 10 13 13 15 16 12 7 4 4 5 6 12 16 9 9 17 15 7 5 7 7 4 4 10 11 3 1 7 11 8 8 10 11 9 8 9 10 12 12 11 10 11 14
4 4 6 6 9 9 7 10 13 12 9 13 12 -5 2 26 19 5 12 15 12 14 19 22 24 16 -9 -15 18 38 35 39 43 45 49 48 49 51 49 47 44 38 35 35 40 49 59 67 62 44 28 21 19 13 10 13 15 16 16 16 17 12 10 9 -1 -3 8 7 2 10 18 17 11 7 8 10 9 11 13 8 -1 1 9 12 7 0 3 9 10 7 5 6 7 7 9 9 11
4 6 9 8 8 10 11 9 8 9 12 17 9 -10 2 20 8 4 15 12 13 23 24 20 21 11 -13 -8 30 42 35 40 39 34 33 30 28 26 20 18 15 12 13 14 19 23 26 37 51 57 52 43 36 28 23 22 21 21 18 16 20 13 3 2 -0 -6 -5 -4 -5 -2 5 13 19 17 10 8 10 12 11 6 -0 -2 5 13 13 5 2 5 9 10 6 3 4 8 10 8 8
Height
5800 5800 5799 5799 5799 5798 5798 5797 5797 5797 5797 5797 5797 5796 5795 5794 5793 5792 5791 5789 5787 5787 5786 5785 5785 5784 5783 5783 5782 5781 5780 5780 5778 5775 5775 5776 5777 5776 5775 5775 5774 5773 5772 5771 5770 5769 5769 5768 5767 5766 5766 5765 5764 5763 5763 5762 5762 5761 5761 5760 5760 5759 5759 5758 5757 5756 5755 5754 5753 5753 5752 5751 5750 5750 5750 5749 5749 5749 5749 5749 5749 5749 5749 5750 5750 5750 5750 5751 5751 5751 5752 5753 5754 5754 5755 5756 5756
5798 5798 5798 5797 5797 5797 5797 5796 5795 5796 5796 5796 5795 5793 5793 5792 5791 5790 5788 5787 5786 5786 5785 5783 5782 5782 5781 5780 5779 5779 5779 5778 5775 5773 5773 5774 5774 5774 5773 5772 5772 5771 5770 5769 5768 5767 5766 5765 5764 5764 5763 5763 5762 5761 5761 5761 5760 5760 5759 5759 5758 5758 5757 5756 5756 5755 5754 5753 5752 5751 5750 5749 5748 5748 5748 5747 5747 5747 5747 5747 5747 5747 5746 5746 5747 5747 5747 5747 5748 5748 5748 5749 5750 5750 5751 5752 5752
5797 5797 5796 5796 5795 5795 5795 5794 5794 5794 5794 5794 5793 5791 5790 5790 5789 5787 5786 5785 5784 5783 5782 5781 5780 5780 5779 5778 5777 5777 5777 5775 5773 5772 5772 5772 5771 5771 5771 5770 5769 5769 5768 5766 5766 5765 5764 5763 5762 5762 5761 5760 5760 5760 5759 5759 5758 5758 5757 5757 5756 5756 5755 5755 5754 5753 5752 5751 5750 5750 5749 5748 5747 5746 5746 5745 5745 5745 5744 5744 5744 5744 5744 5744 5743 5743 5744 5744 5744 5744 5745 5745 5746 5746 5747 5748 5748
5795 5795 5794 5794 5794 5793 5793 5793 5793 5792 5792 5791 5790 5789 5788 5787 5786 5784 5783 5783 5782 5781 5780 5779 5778 5778 5777 5776 5775 5775 5775 5773 5771 5770 5770 5770 5770 5769 5769 5768 5767 5766 5766 5765 5764 5763 5762 5761 5760 5759 5759 5758 5758 5758 5757 5757 5756 5756 5756 5755 5754 5754 5753 5752 5752 5751 5750 5749 5748 5748 5747 5746 5745 5745 5744 5744 5743 5743 5742 5742 5742 5742 5741 5741 5741 5741 5741 5741 5741 5741 5741 5742 5742 5743 5744 5744 5744
5793 5793 5793 5792 5792 5791 5791 5791 5791 5791 5789 5788 5788 5787 5785 5784 5783 5782 5781 5780 5779 5778 5777 5776 5776 5775 5774 5774 5773 5773 5772 5770 5769 5769 5768 5769 5768 5767 5767 5766 5765 5764 5764 5763 5762 5761 5760 5759 5758 5757 5757 5756 5756 5756 5755 5755 5754 5754 5753 5753 5752 5751 5751 5750 5749 5749 5748 5747 5746 5745 5745 5744 5743 5743 5742 5741 5741 5741 5740 5740 5739 5739 5739 5738 5738 5738 5738 5738 5738 5738 5738 5739 5739 5740 5740 5741 5741
5792 5791 5791 5790 5790 5789 5789 5790 5789 5789 5787 5786 5786 5785 5782 5781 5780 5780 5779 5778 5777 5776 5775 5774 5773 5773 5773 5772 5771 5770 5769 5768 5767 5767 5766 5766 5766 5765 5764 5764 5763 5762 5762 5761 5760 5759 5758 5757 5756 5756 5755 5754 5754 5753 5753 5752 5752 5752 5751 5750 5749 5749 5748 5747 5747 5746 5746 5745 5744 5743 5742 5742 5741 5740 5740 5739 5739 5738 5738 5737 5737 5736 5736 5736 5736 5735 5735 5735 5735 5735 5735 5736 5736 5736 5737 5737 5737
5790 5789 5789 5788 5788 5788 5787 5788 5787 5787 5785 5784 5783 5783 5781 5779 5778 5778 5777 5776 5775 5774 5773 5772 5771 5771 5771 5770 5769 5768 5767 5766 5765 5765 5765 5764 5764 5763 5762 5761 5761 5760 5759 5758 5758 5757 5756 5755 5754 5754 5753 5752 5752 5751 5750 5750 5750 5749 5748 5748 5747 5746 5745 5745 5744 5743 5743 5742 5742 5741 5740 5739 5739 5738 5737 5737 5736 5736 5735 5735 5734 5734 5733 5733 5733 5732 5732 5732 5732 5732 5732 5732 5733 5733 5733 5734 5734
5788 5788 5787 5787 5786 5786 5786 5786 5785 5784 5784 5782 5781 5780 5779 5777 5776 5775 5775 5773 5772 5772 5771 5770 5769 5768 5768 5768 5767 5766 5764 5763 5763 5763 5762 5762 5762 5760 5760 5759 5758 5758 5757 5756 5755 5754 5754 5753 5752 5751 5750 5750 5749 5748 5748 5747 5747 5746 5745 5745 5744 5743 5743 5742 5741 5741 5740 5740 5739 5738 5737 5737 5736 5736 5735 5734 5734 5733 5733 5732 5731 5731 5730 5730 5729 5729 5729 5728 5728 5728 5728 5729 5729 5729 5729 5730 5730
5787 5786 5786 5785 5785 5785 5784 5784 5783 5782 5781 5780 5779 5778 5776 5775 5774 5773 5773 5771 5770 5769 5769 5767 5766 5766 5766 5765 5765 5763 5762 5761 5761 5761 5760 5760 5759 5758 5757 5756 5755 5755 5754 5753 5752 5751 5751 5750 5749 5748 5748 5747 5746 5746 5745 5745 5744 5743 5742 5741 5741 5740 5740 5739 5739 5738 5737 5737 5736 5735 5735 5734 5733 5733 5732 5732 5731 5730 5730 5729 5728 5728 5727 5727 5726 5726 5725 5725 5725 5725 5724 5724 5724 5725 5725 5725 5725
5785 5784 5784 5783 5783 5783 5782 5782 5781 5780 5778 5777 5777 5775 5772 5772 5772 5771 5770 5769 5768 5767 5766 5765 5764 5763 5763 5763 5762 5760 5759 5759 5759 5758 5757 5756 5755 5755 5754 5753 5752 5751 5751 5750 5749 5748 5747 5747 5746 5745 5744 5744 5743 5743 5742 5741 5741 5740 5739 5739 5738 5737 5737 5736 5736 5735 5734 5733 5733 5732 5731 5731 5730 5729 5729 5728 5728 5727 5727 5726 5725 5725 5724 5723 5723 5723 5722 5722 5721 5721 5721 5721 5720 5720 5720 5720 5720
5783 5782 5782 5781 5781 5780 5780 5779 5778 5777 5775 5775 5773 5771 5769 5769 5770 5769 5768 5767 5766 5764 5763 5762 5761 5761 5760 5761 5760 5758 5757 5757 5756 5755 5754 5753 5752 5751 5750 5750 5749 5748 5747 5746 5745 5744 5744 5743 5742 5742 5741 5740 5740 5739 5739 5738 5737 5737 5736 5735 5735 5734 5734 5733 5732 5731 5731 5730 5729 5729 5728 5727 5727 5726 5725 5724 5724 5723 5723 5722 5722 5721 5720 5720 5719 5719 5719 5718 5718 5717 5717 5717 5717 5716 5716 5715 5715
5781 5780 5780 5779 5778 5778 5777 5776 5775 5774 5772 5771 5770 5768 5768 5767 5767 5767 5766 5765 5763 5762 5761 5759 5759 5759 5758 5759 5758 5755 5754 5754 5754 5752 5751 5750 5749 5748 5747 5746 5745 5745 5744 5743 5742 5741 5740 5739 5739 5738 5737 5737 5736 5736 5735 5734 5734 5733 5732 5731 5731 5730 5730 5729 5728 5727 5727 5726 5725 5725 5724 5723 5723 5722 5721 5721 5720 5719 5718 5718 5717 5717 5716 5716 5715 5715 5715 5714 5714 5714 5713 5713 5713 5712 5712 5711 5711
5779 5778 5778 5777 5776 5775 5774 5773 5772 5772 5770 5768 5767 5766 5766 5765 5765 5764 5763 5762 5761 5759 5759 5757 5756 5756 5756 5756 5755 5753 5752 5752 5750 5749 5748 5747 5746 5745 5744 5743 5742 5741 5740 5739 5738 5737 5736 5735 5735 5734 5733 5733 5732 5732 5731 5730 5729 5728 5728 5727 5726 5726 5725 5724 5723 5723 5722 5721 5721 5720 5719 5719 5718 5718 5717 5716 5716 5715 5714 5714 5713 5713 5712 5711 5711 5711 5711 5710 5710 5710 5709 5709 5709 5708 5708 5707 5707
5777 5776 5776 5775 5774 5773 5771 5770 5769 5769 5768 5766 5765 5764 5764 5763 5762 5761 5760 5759 5758 5757 5756 5755 5754 5754 5753 5753 5752 5751 5750 5748 5747 5746 5745 5744 5743 5742 5740 5739 5738 5737 5737 5736 5734 5733 5732 5732 5731 5730 5729 5728 5728 5727 5726 5726 5725 5724 5723 5722 5722 5721 5720 5719 5718 5717 5717 5716 5715 5715 5714 5714 5714 5713 5712 5712 5711 5710 5709 5709 5708 5708 5707 5707 5707 5706 5706 5706 5706 5705 5705 5705 5704 5703 5703 5703 5704
5775 5774 5773 5773 5772 5770 5769 5768 5767 5767 5766 5764 5764 5763 5762 5761 5760 5759 5758 5757 5757 5755 5753 5753 5752 5751 5750 5750 5749 5748 5747 5746 5744 5743 5742 5740 5739 5738 5737 5736 5734 5733 5732 5731 5730 5729 5728 5727 5726 5725 5725 5724 5723 5723 5722 5721 5720 5719 5718 5717 5716 5716 5715 5714 5713 5712 5711 5711 5710 5709 5709 5709 5708 5708 5707 5706 5705 5705 5704 5704 5703 5703 5702 5702 5702 5701 5701 5701 5701 5701 5700 5700 5699 5698 5698 5699 5699
5773 5772 5772 5771 5770 5768 5767 5766 5765 5765 5764 5763 5763 5762 5761 5760 5758 5757 5756 5755 5755 5753 5751 5750 5750 5748 5748 5747 5746 5746 5744 5743 5741 5740 5738 5737 5735 5734 5733 5732 5731 5729 5728 5727 5725 5724 5724 5723 5722 5721 5720 5719 5718 5718 5717 5716 5715 5714 5713 5713 5712 5710 5710 5709 5708 5707 5706 5705 5704 5704 5703 5702 5702 5702 5701 5700 5700 5699 5699 5698 5698 5697 5697 5696 5696 5696 5696 5696 5695 5695 5695 5695 5694 5693 5693 5693 5693
5771 5770 5770 5768 5767 5766 5765 5764 5763 5763 5763 5762 5761 5760 5759 5758 5756 5755 5754 5753 5752 5751 5749 5747 5746 5746 5745 5744 5743 5742 5741 5739 5738 5736 5735 5733 5731 5730 5729 5727 5726 5725 5723 5722 5721 5720 5719 5718 5717 5716 5715 5714 5713 5713 5712 5711 5710 5709 5709 5708 5707 5706 5704 5703 5702 5701 5701 5700 5699 5698 5697 5696 5696 5696 5695 5694 5694 5693 5693 5692 5692 5692 5691 5691 5690 5690 5690 5690 5690 5689 5689 5690 5688 5687 5688 5688 5687
5770 5769 5768 5766 5765 5764 5763 5762 5761 5761 5761 5760 5759 5758 5757 5756 5754 5753 5753 5751 5749 5748 5747 5745 5744 5743 5742 5740 5739 5739 5737 5736 5734 5733 5731 5729 5728 5726 5724 5723 5722 5721 5719 5718 5717 5715 5715 5714 5712 5711 5709 5708 5708 5707 5706 5705 5705 5704 5703 5702 5701 5700 5699 5698 5697 5696 5695 5694 5693 5692 5691 5690 5690 5689 5689 5688 5688 5687 5687 5686 5686 5686 5685 5685 5684 5684 5684 5684 5684 5683 5683 5684 5682 5681 5682 5681 5681
5768 5767 5766 5764 5763 5763 5761 5760 5759 5759 5759 5759 5757 5756 5755 5753 5752 5751 5750 5749 5747 5745 5744 5742 5742 5740 5738 5737 5736 5735 5734 5732 5730 5729 5727 5725 5724 5722 5720 5718 5717 5716 5714 5713 5711 5711 5710 5709 5707 5705 5704 5703 5702 5701 5700 5699 5698 5698 5697 5696 5696 5694 5693 5692 5691 5690 5689 5688 5687 5686 5685 5684 5683 5683 5683 5682 5682 5681 5680 5680 5680 5679 5679 5678 5678 5678 5678 5677 5677 5677 5677 5677 5676 5675 5675 5674 5674
5766 5765 5764 5763 5762 5761 5759 5758 5758 5757 5757 5757 5755 5754 5752 5750 5749 5748 5747 5746 5744 5742 5741 5740 5739 5737 5735 5733 5732 5731 5729 5727 5726 5724 5722 5721 5719 5717 5715 5714 5712 5710 5709 5708 5706 5705 5705 5703 5701 5700 5698 5697 5696 5695 5694 5693 5692 5692 5691 5690 5689 5688 5687 5686 5685 5684 5683 5682 5681 5679 5678 5678 5677 5676 5676 5675 5675 5674 5674 5673 5673 5672 5672 5671 5671 5671 5671 5670 5670 5670 5670 5670 5669 5668 5668 5667 5667
5765 5763 5762 5761 5761 5760 5758 5757 5756 5755 5754 5754 5752 5751 5749 5747 5746 5745 5743 5742 5741 5739 5738 5737 5735 5733 5731 5729 5727 5726 5724 5723 5721 5719 5717 5716 5714 5712 5711 5709 5707 5705 5703 5702 5701 5700 5699 5696 5695 5694 5692 5691 5690 5689 5687 5686 5686 5685 5684 5683 5682 5681 5680 5680 5678 5677 5676 5675 5674 5672 5671 5671 5670 5669 5669 5668 5668 5668 5667 5666 5666 5665 5665 5664 5664 5664 5664 5663 5663 5663 5663 5662 5662 5661 5660 5660 5659
5764 5761 5760 5759 5759 5758 5756 5755 5754 5753 5752 5751 5749 5748 5746 5744 5743 5741 5739 5738 5737 5737 5734 5732 5729 5727 5726 5724 5722 5720 5719 5718 5716 5714 5712 5710 5708 5707 5705 5704 5702 5700 5698 5696 5694 5693 5692 5690 5689 5688 5687 5685 5684 5683 5681 5680 5679 5678 5676 5675 5674 5673 5672 5672 5670 5670 5669 5667 5666 5665 5664 5663 5663 5662 5661 5661 5661 5660 5660 5659 5659 5658 5658 5657 5657 5657 5656 5656 5656 5656 5655 5655 5654 5654 5653 5652 5652
5762 5760 5758 5757 5757 5756 5755 5754 5752 5751 5749 5748 5747 5745 5742 5741 5741 5738 5735 5733 5732 5732 5729 5726 5725 5723 5721 5719 5716 5715 5713 5711 5710 5709 5707 5704 5702 5701 5699 5698 5696 5694 5692 5690 5688 5687 5685 5683 5682 5681 5680 5679 5678 5676 5674 5673 5672 5671 5669 5668 5666 5665 5664 5663 5662 5661 5660 5659 5658 5657 5657 5656 5655 5655 5654 5653 5653 5653 5652 5652 5652 5651 5650 5650 5649 5649 5649 5649 5648 5648 5648 5647 5647 5646 5646 5645 5645
5760 5759 5757 5756 5755 5754 5753 5752 5750 5748 5747 5745 5744 5741 5739 5738 5737 5735 5732 5729 5727 5725 5724 5722 5720 5718 5715 5713 5711 5709 5707 5705 5703 5702 5701 5699 5697 5695 5693 5692 5690 5688 5686 5684 5682 5680 5678 5676 5675 5674 5672 5671 5670 5668 5667 5665 5664 5663 5662 5660 5658 5656 5655 5654 5653 5653 5652 5651 5650 5650 5649 5648 5648 5647 5647 5646 5646 5645 5645 5645 5644 5643 5643 5643 5642 5642 5642 5642 5641 5641 5640 5640 5639 5639 5638 5638 5637
5759 5758 5756 5755 5753 5752 5751 5749 5747 5746 5744 5743 5740 5737 5735 5734 5733 5731 5728 5725 5722 5720 5718 5717 5715 5712 5710 5708 5706 5704 5702 5699 5697 5696 5694 5692 5691 5690 5688 5686 5684 5682 5680 5677 5675 5674 5671 5669 5668 5666 5664 5663 5661 5660 5659 5658 5656 5656 5654 5652 5651 5649 5647 5645 5645 5644 5643 5643 5642 5642 5641 5641 5640 5639 5639 5638 5638 5638 5637 5637 5637 5636 5636 5635 5635 5635 5635 5634 5634 5633 5633 5633 5632 5631 5631 5630 5630
5757 5756 5755 5753 5752 5750 5749 5746 5745 5743 5741 5740 5738 5734 5732 5730 5728 5727 5724 5721 5718 5715 5713 5711 5709 5707 5704 5703 5700 5698 5697 5694 5692 5691 5688 5686 5685 5684 5682 5680 5679 5677 5674 5671 5669 5667 5664 5663 5661 5659 5658 5655 5653 5652 5652 5650 5649 5648 5646 5644 5643 5641 5640 5638 5638 5636 5635 5635 5634 5634 5634 5633 5632 5632 5631 5631 5631 5630 5630 5630 5629 5629 5629 5628 5628 5627 5627 5627 5626 5626 5626 5625 5625 5624 5624 5623 5623
5756 5754 5752 5751 5750 5748 5746 5744 5742 5740 5739 5737 5734 5732 5729 5726 5724 5723 5720 5717 5714 5711 5708 5706 5704 5701 5699 5698 5695 5693 5691 5689 5687 5685 5683 5681 5679 5678 5676 5674 5673 5671 5668 5666 5662 5660 5657 5656 5654 5652 5650 5647 5646 5646 5645 5643 5642 5640 5638 5637 5636 5634 5633 5631 5630 5629 5628 5627 5627 5627 5627 5626 5625 5625 5624 5624 5623 5623 5623 5622 5622 5621 5621 5620 5621 5620 5620 5619 5619 5618 5618 5618 5617 5617 5616 5616 5616
5754 5752 5750 5749 5748 5746 5744 5742 5739 5737 5735 5733 5731 5729 5726 5723 5720 5718 5715 5712 5710 5707 5704 5701 5699 5696 5694 5692 5690 5688 5687 5684 5682 5680 5677 5675 5673 5672 5669 5666 5666 5664 5662 5660 5656 5654 5651 5649 5647 5645 5642 5640 5639 5639 5637 5635 5634 5632 5631 5630 5628 5626 5625 5625 5623 5622 5622 5621 5621 5620 5619 5618 5618 5617 5616 5616 5616 5616 5615 5615 5614 5614 5613 5613 5613 5613 5612 5612 5611 5611 5610 5610 5610 5609 5609 5608 5608
5753 5751 5748 5746 5744 5742 5740 5738 5736 5734 5732 5730 5728 5726 5723 5719 5716 5713 5710 5707 5704 5702 5699 5696 5694 5691 5689 5687 5684 5682 5681 5679 5676 5674 5672 5670 5667 5666 5663 5660 5658 5658 5655 5653 5651 5648 5646 5643 5641 5638 5636 5634 5633 5632 5630 5628 5627 5625 5624 5623 5621 5619 5618 5618 5618 5617 5616 5615 5614 5613 5612 5611 5611 5610 5609 5609 5608 5608 5608 5607 5607 5606 5605 5605 5606 5605 5605 5604 5603 5603 5603 5602 5602 5601 5601 5601 5600
5751 5749 5747 5744 5741 5739 5737 5735 5732 5730 5728 5726 5724 5722 5719 5715 5712 5709 5706 5703 5700 5697 5694 5691 5688 5686 5683 5681 5679 5676 5674 5672 5670 5668 5666 5664 5661 5659 5657 5653 5651 5651 5648 5646 5644 5642 5639 5637 5635 5633 5631 5629 5628 5626 5624 5622 5620 5618 5617 5616 5614 5613 5612 5613 5612 5611 5609 5609 5608 5606 5605 5604 5603 5603 5602 5601 5601 5601 5600 5600 5599 5598 5597 5597 5598 5597 5597 5596 5596 5595 5595 5595 5594 5593 5593 5593 5592
5748 5746 5744 5742 5740 5737 5735 5733 5730 5727 5724 5722 5720 5718 5715 5711 5707 5704 5702 5699 5696 5692 5689 5686 5683 5680 5678 5675 5673 5670 5667 5665 5663 5661 5659 5657 5654 5652 5650 5647 5644 5643 5641 5639 5637 5634 5632 5631 5629 5627 5625 5624 5622 5620 5618 5616 5614 5612 5611 5610 5608 5608 5607 5607 5606 5604 5603 5603 5601 5600 5599 5597 5596 5595 5594 5593 5593 5593 5592 5592 5591 5589 5589 5589 5590 5589 5589 5588 5588 5587 5587 5586 5586 5585 5585 5585 5584
5745 5744 5741 5739 5737 5735 5732 5730 5727 5724 5721 5718 5716 5713 5710 5706 5702 5698 5696 5693 5690 5687 5683 5680 5677 5674 5671 5669 5666 5664 5660 5657 5654 5652 5650 5648 5646 5644 5643 5640 5637 5636 5634 5632 5630 5628 5626 5624 5622 5621 5619 5618 5616 5614 5612 5610 5608 5607 5605 5604 5603 5602 5601 5600 5598 5597 5597 5596 5595 5593 5591 5590 5588 5587 5587 5585 5584 5584 5584 5584 5583 5581 5581 5581 5582 5581 5581 5580 5579 5579 5579 5578 5578 5577 5577 5577 5576
5743 5741 5739 5736 5734 5732 5730 5727 5725 5722 5718 5715 5713 5709 5704 5701 5697 5693 5691 5688 5684 5682 5677 5674 5672 5669 5666 5663 5661 5659 5656 5653 5650 5647 5645 5642 5640 5638 5636 5633 5631 5630 5628 5626 5624 5622 5620 5618 5616 5614 5613 5611 5609 5607 5605 5603 5602 5601 5599 5597 5596 5595 5594 5593 5591 5590 5590 5589 5587 5586 5584 5582 5580 5580 5578 5577 5576 5576 5576 5575 5574 5573 5573 5574 5574 5574 5573 5572 5571 5571 5570 5570 5569 5569 5569 5568 5568
5741 5739 5737 5734 5730 5728 5726 5724 5722 5719 5716 5713 5710 5706 5700 5696 5692 5688 5685 5683 5680 5677 5674 5670 5668 5666 5663 5660 5658 5656 5654 5652 5650 5647 5643 5640 5636 5633 5631 5628 5626 5624 5621 5619 5617 5616 5614 5612 5609 5607 5605 5603 5601 5599 5597 5596 5595 5593 5592 5590 5589 5588 5587 5585 5583 5582 5582 5581 5580 5578 5576 5575 5573 5572 5571 5570 5569 5569 5568 5568 5567 5566 5566 5566 5567 5567 5566 5564 5563 5562 5562 5562 5561 5561 5561 5561 5561
5738 5736 5733 5732 5728 5725 5722 5721 5718 5717 5714 5710 5708 5704 5697 5693 5688 5682 5680 5679 5676 5673 5671 5668 5666 5664 5660 5658 5656 5653 5652 5650 5647 5645 5641 5637 5633 5629 5627 5624 5622 5619 5616 5613 5611 5608 5606 5604 5602 5600 5598 5596 5594 5592 5590 5588 5587 5586 5584 5583 5581 5581 5579 5577 5576 5575 5574 5573 5572 5570 5569 5568 5567 5565 5564 5563 5562 5562 5561 5561 5560 5559 5559 5559 5560 5559 5558 5557 5556 5555 5555 5555 5554 5554 5554 5553 5553
5735 5732 5729 5728 5726 5723 5719 5717 5714 5713 5712 5707 5705 5702 5694 5689 5684 5679 5678 5677 5673 5669 5667 5664 5662 5659 5656 5653 5651 5649 5648 5646 5643 5640 5636 5632 5628 5624 5622 5619 5617 5614 5611 5609 5606 5602 5600 5597 5595 5593 5590 5589 5587 5586 5584 5582 5580 5578 5576 5575 5574 5573 5570 5569 5569 5568 5567 5566 5565 5564 5562 5562 5560 5559 5558 5557 5556 5555 5555 5554 5553 5553 5552 5552 5553 5552 5551 5550 5549 5549 5548 5548 5547 5547 5546 5546 5546
5733 5730 5727 5724 5723 5721 5717 5714 5712 5709 5708 5705 5702 5697 5688 5682 5679 5676 5676 5675 5670 5666 5663 5660 5657 5654 5650 5647 5645 5643 5642 5640 5637 5633 5629 5626 5622 5619 5616 5614 5611 5608 5605 5603 5600 5597 5594 5591 5588 5586 5583 5581 5580 5578 5577 5575 5573 5571 5569 5568 5567 5565 5563 5563 5562 5561 5560 5559 5558 5557 5556 5555 5553 5552 5551 5550 5549 5548 5548 5547 5546 5545 5544 5544 5545 5545 5544 5543 5542 5542 5541 5541 5540 5540 5539 5539 5539
5731 5728 5725 5722 5720 5719 5715 5711 5708 5705 5704 5701 5697 5692 5682 5676 5675 5672 5671 5669 5666 5663 5660 5656 5652 5648 5645 5642 5639 5637 5635 5633 5630 5627 5622 5619 5615 5612 5610 5608 5605 5602 5599 5597 5595 5591 5588 5586 5583 5580 5577 5575 5572 5570 5569 5567 5565 5563 5562 5561 5560 5559 5558 5557 5557 5555 5554 5553 5552 5551 5550 5548 5547 5545 5544 5543 5542 5541 5540 5540 5539 5537 5537 5536 5537 5537 5536 5536 5535 5534 5534 5534 5533 5533 5533 5532 5532
5728 5725 5722 5719 5716 5715 5714 5710 5705 5701 5699 5697 5694 5688 5677 5672 5671 5668 5665 5663 5660 5657 5654 5651 5647 5643 5639 5635 5633 5631 5628 5626 5623 5620 5615 5612 5608 5605 5603 5601 5598 5595 5593 5591 5589 5585 5582 5579 5577 5574 5571 5568 5565 5563 5562 5560 5558 5556 5555 5554 5553 5552 5551 5550 5550 5549 5547 5545 5544 5544 5543 5541 5539 5538 5537 5536 5535 5534 5533 5533 5532 5530 5530 5529 5529 5529 5529 5528 5528 5527 5526 5526 5526 5526 5526 5525 5525
5724 5721 5719 5717 5713 5710 5708 5707 5703 5698 5694 5692 5690 5685 5674 5670 5669 5664 5659 5656 5653 5650 5647 5644 5640 5636 5632 5628 5625 5623 5621 5618 5615 5612 5608 5604 5600 5597 5594 5592 5590 5588 5586 5584 5581 5578 5575 5571 5569 5567 5564 5562 5559 5557 5555 5554 5552 5549 5547 5546 5545 5544 5544 5543 5542 5541 5538 5537 5537 5536 5535 5533 5532 5531 5529 5528 5528 5527 5526 5526 5525 5524 5523 5523 5522 5522 5522 5521 5520 5519 5519 5518 5518 5518 5519 5518 5518
5723 5720 5716 5713 5710 5706 5702 5701 5699 5695 5690 5686 5684 5681 5673 5669 5667 5662 5656 5651 5646 5643 5640 5637 5633 5629 5625 5621 5617 5613 5611 5608 5606 5603 5600 5596 5592 5588 5585 5582 5580 5579 5577 5576 5573 5570 5567 5564 5561 5559 5556 5554 5552 5551 5549 5547 5544 5542 5540 5539 5538 5537 5536 5536 5534 5532 5530 5530 5530 5529 5527 5525 5524 5523 5521 5520 5520 5519 5519 5518 5518 5517 5516 5516 5515 5515 5515 5514 5513 5512 5512 5511 5511 5511 5511 5511 5511
5721 5717 5714 5710 5707 5703 5699 5695 5694 5692 5688 5681 5677 5675 5671 5666 5664 5660 5655 5649 5644 5639 5634 5631 5626 5622 5619 5615 5611 5606 5602 5599 5595 5593 5590 5587 5583 5580 5576 5573 5570 5568 5567 5565 5564 5561 5559 5555 5553 5550 5548 5546 5544 5542 5541 5539 5536 5535 5533 5532 5531 5529 5529 5529 5526 5525 5524 5523 5523 5521 5519 5518 5516 5515 5514 5513 5512 5511 5511 5510 5510 5510 5509 5508 5508 5507 5507 5507 5506 5505 5504 5504 5504 5503 5503 5504 5504
5717 5713 5710 5706 5703 5699 5695 5692 5688 5686 5683 5678 5672 5669 5666 5663 5660 5656 5651 5646 5642 5637 5631 5625 5621 5616 5612 5608 5604 5601 5597 5593 5588 5584 5580 5577 5574 5571 5567 5564 5560 5558 5556 5554 5553 5551 5549 5546 5543 5541 5539 5537 5535 5533 5532 5530 5528 5527 5526 5525 5523 5522 5521 5521 5519 5517 5517 5516 5514 5513 5511 5510 5508 5507 5506 5505 5504 5503 5502 5502 5502 5502 5501 5501 5500 5499 5500 5499 5498 5498 5497 5496 5496 5496 5495 5496 5496
5713 5710 5707 5704 5700 5696 5692 5688 5684 5681 5678 5674 5668 5663 5659 5658 5655 5649 5645 5640 5635 5631 5626 5620 5615 5611 5606 5602 5598 5595 5591 5587 5583 5578 5573 5568 5565 5561 5558 5555 5551 5548 5545 5543 5541 5539 5537 5535 5532 5530 5528 5527 5525 5523 5522 5521 5520 5518 5517 5516 5515 5512 5512 5512 5510 5508 5507 5506 5506 5505 5503 5501 5499 5498 5497 5496 5495 5494 5493 5493 5493 5493 5493 5492 5491 5491 5492 5491 5490 5490 5490 5489 5489 5488 5488 5488 5488
5710 5706 5703 5700 5696 5693 5688 5684 5681 5677 5675 5670 5664 5657 5651 5650 5650 5644 5638 5634 5629 5624 5619 5614 5610 5605 5600 5595 5590 5587 5583 5579 5575 5570 5566 5561 5557 5552 5549 5546 5542 5538 5535 5533 5530 5528 5526 5524 5521 5519 5517 5515 5514 5512 5511 5509 5508 5508 5507 5506 5505 5503 5501 5501 5500 5499 5497 5496 5496 5496 5494 5492 5491 5489 5488 5487 5486 5485 5484 5484 5483 5483 5484 5483 5483 5483 5483 5483 5482 5482 5482 5481 5481 5481 5480 5480 5480
5706 5703 5700 5696 5692 5689 5685 5681 5677 5674 5671 5666 5659 5652 5642 5640 5643 5639 5631 5627 5622 5617 5611 5606 5601 5596 5591 5586 5581 5576 5573 5569 5565 5560 5556 5552 5547 5543 5539 5536 5533 5529 5526 5522 5519 5517 5514 5512 5510 5508 5505 5504 5502 5501 5499 5498 5497 5496 5495 5494 5494 5493 5491 5490 5490 5489 5487 5486 5487 5486 5484 5483 5483 5481 5480 5478 5477 5476 5475 5475 5475 5475 5475 5475 5475 5475 5474 5474 5474 5474 5474 5473 5473 5473 5473 5472 5472
5701 5698 5696 5693 5689 5685 5682 5677 5673 5669 5667 5663 5654 5646 5637 5629 5629 5628 5621 5615 5610 5606 5601 5595 5590 5584 5579 5574 5569 5564 5560 5557 5553 5550 5546 5542 5537 5533 5529 5526 5523 5519 5516 5512 5508 5506 5503 5501 5499 5497 5494 5492 5491 5490 5488 5487 5485 5484 5483 5483 5482 5482 5481 5480 5480 5479 5477 5476 5477 5476 5474 5474 5473 5472 5471 5469 5468 5467 5465 5465 5466 5466 5466 5466 5466 5466 5466 5466 5465 5465 5465 5465 5465 5465 5465 5464 5464
5697 5693 5689 5687 5684 5681 5678 5673 5667 5662 5660 5657 5648 5639 5631 5621 5616 5614 5609 5603 5597 5592 5588 5583 5577 5571 5565 5559 5554 5549 5545 5541 5539 5536 5534 5531 5528 5524 5520 5516 5512 5509 5505 5501 5498 5495 5493 5491 5489 5486 5484 5481 5479 5478 5477 5476 5474 5472 5472 5471 5471 5471 5470 5470 5470 5469 5468 5467 5467 5466 5466 5465 5464 5463 5462 5461 5459 5457 5456 5456 5457 5457 5457 5457 5457 5457 5457 5457 5456 5457 5457 5457 5457 5457 5457 5456 5456
5693 5689 5683 5678 5673 5670 5667 5662 5657 5653 5650 5648 5640 5629 5622 5614 5608 5603 5598 5593 5588 5581 5576 5570 5564 5558 5553 5546 5540 5535 5530 5526 5523 5520 5517 5516 5514 5511 5508 5504 5500 5497 5493 5490 5487 5484 5482 5480 5478 5477 5475 5472 5469 5467 5466 5464 5463 5461 5460 5459 5459 5459 5459 5459 5459 5458 5458 5457 5456 5457 5456 5455 5455 5454 5453 5452 5450 5448 5448 5448 5448 5448 5448 5449 5448 5448 5449 5448 5448 5448 5449 5449 5449 5449 5449 5449 5449
5687 5682 5676 5670 5663 5658 5655 5651 5646 5642 5641 5641 5634 5622 5613 5606 5599 5594 5589 5583 5578 5572 5565 5558 5552 5546 5540 5534 5528 5522 5518 5513 5509 5505 5501 5499 5497 5495 5493 5490 5486 5483 5479 5477 5474 5472 5470 5468 5466 5466 5465 5463 5460 5457 5456 5454 5453 5451 5449 5448 5447 5447 5447 5447 5447 5447 5447 5446 5446 5446 5446 5445 5445 5445 5444 5443 5442 5440 5440 5439 5439 5440 5440 5440 5440 5440 5440 5440 5439 5440 5441 5441 5441 5441 5441 5441 5441
5683 5678 5673 5668 5661 5653 5647 5643 5637 5631 5629 5632 5630 5621 5612 5603 5593 5587 5582 5575 5569 5562 5555 5548 5541 5535 5529 5523 5518 5512 5507 5503 5498 5493 5489 5486 5482 5479 5476 5473 5470 5468 5466 5464 5462 5460 5458 5457 5455 5454 5454 5453 5451 5448 5446 5444 5443 5441 5439 5437 5436 5435 5435 5435 5435 5435 5435 5435 5435 5435 5436 5435 5435 5435 5435 5435 5434 5433 5432 5431 5431 5431 5432 5432 5432 5432 5432 5432 5432 5432 5433 5433 5433 5433 5433 5434 5434
5682 5678 5672 5666 5660 5652 5644 5640 5634 5624 5619 5621 5622 5616 5609 5602 5592 5585 5579 5571 5563 5554 5546 5539 5532 5526 5521 5514 5507 5501 5495 5490 5485 5480 5476 5473 5469 5465 5460 5457 5454 5452 5451 5450 5448 5446 5444 5444 5443 5442 5441 5441 5440 5439 5437 5435 5433 5431 5429 5427 5426 5424 5424 5424 5424 5423 5423 5423 5424 5424 5425 5425 5425 5426 5426 5426 5426 5426 5425 5424 5423 5423 5424 5424 5425 5425 5424 5424 5424 5424 5425 5425 5426 5426 5426 5426 5426
5678 5674 5670 5664 5658 5649 5639 5632 5629 5621 5612 5610 5611 5605 5600 5593 5584 5579 5573 5564 5557 5548 5539 5533 5525 5518 5511 5503 5494 5487 5481 5476 5472 5468 5463 5459 5455 5451 5447 5443 5440 5438 5435 5434 5434 5432 5431 5430 5429 5429 5429 5428 5428 5427 5426 5424 5422 5421 5420 5418 5416 5415 5413 5413 5414 5413 5413 5412 5412 5412 5413 5414 5414 5415 5416 5417 5417 5417 5417 5417 5416 5416 5416 5416 5417 5417 5416 5416 5416 5416 5417 5418 5418 5418 5418 5419 5419
5674 5669 5664 5659 5654 5648 5637 5624 5616 5612 5604 5600 5601 5597 5591 5583 5574 5569 5563 5555 5549 5541 5531 5523 5515 5506 5498 5490 5483 5476 5470 5464 5459 5455 5450 5446 5443 5439 5435 5432 5430 5427 5424 5422 5421 5419 5417 5415 5414 5414 5415 5416 5415 5414 5414 5413 5411 5410 5409 5408 5406 5405 5404 5403 5403 5403 5403 5402 5402 5401 5401 5402 5403 5403 5405 5407 5407 5408 5408 5408 5408 5408 5408 5408 5409 5409 5408 5408 5409 5409 5410 5410 5410 5410 5411 5411 5412
5671 5665 5659 5651 5644 5639 5634 5622 5609 5601 5593 5587 5589 5588 5584 5576 5566 5558 5550 5541 5533 5524 5515 5507 5500 5492 5484 5477 5471 5464 5458 5451 5445 5440 5436 5432 5429 5425 5422 5420 5418 5416 5413 5411 5409 5406 5404 5402 5400 5399 5400 5401 5401 5400 5400 5400 5399 5399 5399 5398 5396 5395 5394 5393 5392 5392 5391 5391 5391 5390 5390 5390 5390 5392 5394 5396 5397 5398 5398 5399 5399 5399 5400 5400 5401 5401 5401 5401 5401 5402 5403 5403 5403 5403 5404 5404 5404
5669 5663 5656 5649 5640 5631 5627 5621 5609 5597 5586 5577 5573 5574 5573 5565 5554 5544 5534 5525 5516 5506 5497 5490 5484 5478 5471 5463 5457 5450 5443 5437 5431 5426 5422 5417 5413 5409 5406 5404 5402 5401 5399 5397 5394 5392 5390 5388 5386 5385 5384 5386 5387 5386 5385 5385 5386 5387 5387 5388 5387 5385 5383 5382 5381 5380 5380 5380 5379 5379 5379 5379 5379 5380 5382 5384 5386 5387 5388 5388 5389 5390 5390 5391 5392 5392 5393 5393 5394 5395 5395 5396 5396 5396 5397 5397 5397
5663 5657 5650 5645 5639 5631 5624 5620 5613 5600 5586 5574 5562 5556 5558 5553 5540 5530 5522 5513 5505 5494 5484 5477 5471 5466 5459 5452 5444 5435 5428 5424 5419 5415 5410 5406 5402 5398 5395 5392 5390 5388 5386 5384 5381 5379 5376 5374 5373 5372 5371 5371 5373 5373 5372 5372 5373 5374 5375 5376 5375 5374 5372 5370 5369 5368 5368 5369 5369 5368 5368 5368 5368 5370 5370 5371 5374 5376 5377 5378 5379 5380 5380 5381 5383 5383 5384 5385 5386 5387 5388 5388 5388 5389 5390 5390 5390
5655 5649 5643 5636 5630 5622 5613 5607 5604 5595 5582 5571 5555 5543 5544 5542 5529 5520 5513 5502 5494 5484 5475 5468 5462 5457 5451 5443 5434 5425 5419 5414 5409 5405 5402 5398 5395 5392 5388 5386 5383 5379 5377 5374 5372 5369 5367 5365 5362 5361 5360 5360 5360 5361 5361 5361 5361 5362 5362 5362 5362 5361 5359 5357 5356 5355 5356 5357 5358 5358 5358 5357 5358 5359 5358 5360 5362 5364 5365 5367 5368 5370 5370 5371 5373 5374 5375 5377 5378 5379 5380 5380 5381 5382 5383 5383 5383